Weather History for MROC - April, 2013

Change the Weather History Date:

Thursday, April 11, 2013

  Actual Average Record
Temperature  
Mean Temperature 76 °F -  
Max Temperature 87 °F 82 °F 91 °F (1998)
Min Temperature 66 °F 65 °F 63 °F (2012)
Cooling Degree Days 12    
Growing Degree Days 26 (Base 50)    
Moisture  
Dew Point 64 °F    
Average Humidity 70    
Maximum Humidity 94    
Minimum Humidity 34    
Precipitation  
Precipitation 0.98 in 0.20 in - ()
Sea Level Pressure  
Sea Level Pressure 29.92 in    
Wind  
Wind Speed 6 mph ()    
Max Wind Speed 16 mph    
Max Gust Speed -    
Visibility 6.8 miles    
Events Fog , Rain , Thunderstorm    
Averages and records for this station are not official NWS values.
T = Trace of Precipitation, MM = Missing Value Source: Averaged Metar Reports

Daily Weather History Graph

Daily Weather History Graph

Search for Another Location

Airport or City:

Trip Planner

Search our weather history database for the weather conditions in past years. The results will help you decide how hot, cold, wet, or windy it might be!

Date:

Astronomy

Apr. 11, 2013 Rise Set
Actual Time 5:28 AM CST 5:47 PM CST
Civil Twilight 5:07 AM CST 6:08 PM CST
Nautical Twilight 4:42 AM CST 6:33 PM CST
Astronomical Twilight 4:17 AM CST 6:58 PM CST
Moon 6:15 AM CST (4/11) 7:00 PM CST (4/11)
Length of Visible Light 13h 01m
Length of Day
12h 18m
New Moon, 2% of the Moon is Illuminated
Apr 11
New Moon
Apr 18
First Quarter
Apr 25
Full
May 2
Last Quarter
May 9
New

Hourly Weather History & Observations

Time (CST) Temp. Heat Index Dew Point Humidity Pressure Visibility Wind Dir Wind Speed Gust Speed Precip Events Conditions
12:00 AM 71 °F - 62 °F 64% 29.77 in 12 mi East 3.5 mph - -   Scattered Clouds
12:00 AM 71.6 °F - 60.8 °F 69% 29.97 in 6.2 mi East 3.5 mph - N/A   Scattered Clouds
1:00 AM 69.8 °F - 60.8 °F 73% 29.96 in 6.2 mi ENE 8.1 mph - N/A   Partly Cloudy
2:00 AM 68.0 °F - 60.8 °F 78% 29.94 in 6.2 mi ENE 4.6 mph - N/A   Partly Cloudy
3:00 AM 69.8 °F - 60.8 °F 73% 29.92 in 6.2 mi ENE 9.2 mph - N/A   Partly Cloudy
4:00 AM 69.8 °F - 60.8 °F 73% 29.92 in - ENE 8.1 mph - N/A   Clear
5:00 AM 68.0 °F - 60.8 °F 78% 29.93 in - ENE 8.1 mph - N/A   Clear
6:00 AM 68 °F - 60 °F 68% 29.79 in 12 mi ENE 5.8 mph - -   Clear
6:00 AM 68.0 °F - 60.8 °F 78% 29.95 in - ENE 5.8 mph - N/A   Clear
7:00 AM 75.2 °F - 60.8 °F 61% 29.98 in - ENE 3.5 mph - N/A   Clear
8:00 AM 77.0 °F - 60.8 °F 57% 30.00 in - NNE 5.8 mph - N/A   Clear
9:00 AM 82 °F - 58 °F 34% 29.83 in 12 mi WSW 9.2 mph - -   Clear
9:00 AM 82.4 °F 82.5 °F 59.0 °F 45% 30.00 in - WSW 9.2 mph - N/A   Clear
10:00 AM 82.4 °F 83.9 °F 64.4 °F 54% 30.00 in - WSW 8.1 mph - N/A   Clear
11:00 AM 84.2 °F 86.6 °F 66.2 °F 55% 29.98 in 6.2 mi SSW 12.7 mph - N/A   Scattered Clouds
12:00 PM 82 °F - 68 °F 54% 29.79 in 12 mi WSW 13.8 mph - -   Partly Cloudy
12:00 PM 82.4 °F 85.4 °F 68.0 °F 62% 29.96 in 6.2 mi WSW 13.8 mph - N/A   Scattered Clouds
1:00 PM 86.0 °F 87.3 °F 64.4 °F 48% 29.93 in 6.2 mi SW 10.4 mph - N/A   Scattered Clouds
2:00 PM 86.0 °F 88.2 °F 66.2 °F 51% 29.90 in 6.2 mi WSW 12.7 mph - N/A   Scattered Clouds
3:00 PM 82 °F - 67 °F 51% 29.71 in 9 mi WSW 11.5 mph - -   Overcast
3:00 PM 82.4 °F 84.6 °F 66.2 °F 58% 29.89 in 6.2 mi WSW 11.5 mph - N/A   Mostly Cloudy
3:30 PM 78.8 °F - 62.6 °F 57% 29.92 in 2.5 mi ENE 9.2 mph - N/A Rain , Thunderstorm Heavy Thunderstorms and Rain
3:50 PM 69.8 °F - 64.4 °F 83% 29.92 in 0.3 mi East 15.0 mph - N/A Rain , Thunderstorm Light Thunderstorms and Rain
4:00 PM 69.8 °F - 64.4 °F 83% 29.98 in 0.3 mi ENE 12.7 mph - N/A Rain , Thunderstorm Light Thunderstorms and Rain
4:15 PM 69.8 °F - 66.2 °F 88% 29.91 in 2.2 mi East 16.1 mph - N/A Rain Light Rain
5:00 PM 71.6 °F - 68.0 °F 88% 29.91 in 6.2 mi East 5.8 mph - N/A   Mostly Cloudy
6:00 PM 73 °F - 66 °F 73% 29.78 in 12 mi NE 2.3 mph - -   Overcast
6:00 PM 73.4 °F - 66.2 °F 78% 29.94 in 6.2 mi NE 2.3 mph - N/A   Mostly Cloudy
7:00 PM 73.4 °F - 69.8 °F 88% 29.96 in 6.2 mi WSW 3.5 mph - N/A   Mostly Cloudy
8:00 PM 71.6 °F - 69.8 °F 94% 29.98 in 6.2 mi WSW 3.5 mph - N/A   Mostly Cloudy
9:00 PM 71 °F - 68 °F 89% 29.81 in 9 mi WSW 3.5 mph - -   Haze
9:00 PM 71.6 °F - 68.0 °F 88% 29.99 in 6.2 mi WSW 3.5 mph - N/A Fog Mostly Cloudy
10:00 PM 71.6 °F - 68.0 °F 88% 29.99 in 6.2 mi Calm Calm - N/A Fog Mostly Cloudy
11:00 PM 71.6 °F - 68.0 °F 88% 29.99 in 6.2 mi Calm Calm - N/A Fog Scattered Clouds